Погода в Хаммамете

Тунис     36°22′54″N   10°32′24″E
темп.,
°C
ветер,
м/с
пор.,
м/с
влажн.,
%
обл.,
%
осадки,
мм/ч
давл.,
гПа
погр.,
м
22 января, пт
пт2201:00+8сз117016 0.0 102122
04:00+8ююз01750 0.0 101922
07:00+8ю22710 0.0 101823
10:00+15ююз255139 0.0 1018247
13:00+17ююз684170 0.0 1015721
16:00+16ююз4846100 0.0 1012533
19:00+11ююз236167 0.0 101223
22:00+11ююз22573 0.0 101223
23 января, сб
сб2301:00+12зсз445344 0.0 101172
04:00+12зсз51469100 0.2 1011930
07:00+10з8177350 0.2 1012865
10:00+13зсз10156454 0.0 10131277
13:00+15зсз11145164 0.0 10131550
16:00+15з9145164 0.0 10131992
19:00+10з4126732 0.0 1014364
22:00+10з6157445 0.0 1015734
24 января, вс
вс2401:00+8з4117224 0.0 1014283
04:00+8ююз3470100 0.0 101281
07:00+7ю456689 0.0 101086
10:00+13ююз455077 0.0 1008198
13:00+19з11174259 0.0 10062274
16:00+14зсз11196399 0.3 10071643
19:00+11зсз7177482 0.3 10101137
22:00+9зсз398595 0.1 1013319
25 января, пн
пн2501:00+8зсз348198 0.1 101583
04:00+9зюз2581100 0.0 1015234
07:00+8з31179100 0.0 1015323
10:00+12з5862100 0.0 1017756
13:00+15з71047100 0.0 10171555
16:00+12ссз7978100 0.0 1017781
19:00+9сз4976100 0.0 1019305
22:00+7зсз3773100 0.0 1021151
26 января, вт
вт2601:00+6зсз348450 0.0 102262
04:00+6зсз238399 0.0 102131
07:00+6зсз238799 0.0 102234
10:00+11сз610636 0.0 10231266
13:00+14сз811549 0.2 10221753
16:00+13сз7115518 0.1 10211624
19:00+9зсз487735 0.1 1023202
22:00+7з339031 0.1 102445